Regional Weather Roundup
Issued by NWS

Home | Current Version | Previous Version | Text Only | Print | Product List | Glossary On
Versions: 1 2 3 4 5 6 7 8 9 10 11 12 13 14 15 16 17 18 19 20 21 22 23 24 25 26 27
000
ASUS42 KTBW 211017
RWRFL
FLORIDA REGIONAL WEATHER ROUNDUP
NATIONAL WEATHER SERVICE TAMPA BAY RUSKIN FL
500 AM EST SUN JAN 21 2018

NOTE: "FAIR" INDICATES FEW OR NO CLOUDS BELOW 12,000 FEET WITH NO
SIGNIFICANT WEATHER AND/OR OBSTRUCTIONS TO VISIBILITY.

FLZ001>010-012>015-112-114-115-211100-
PANHANDLE FLORIDA

CITY           SKY/WX    TMP DP  RH WIND       PRES   REMARKS
PENSACOLA      FAIR      51  46  83 E6        30.21R
PENSACOLA NAS  FAIR      44  42  93 CALM      30.21R
MILTON NAS     FAIR      41  40  96 CALM      30.21
CRESTVIEW      FAIR      36  35  96 CALM      30.23F
DUKE FIELD     FAIR      35  34  94 CALM      30.21F
VALPARAISO     CLEAR     44  40  87 CALM      30.21F
MARY ESTHER    FAIR      46  43  90 E5        30.20S WCI  43
PANAMA CITY    FAIR      41  37  86 NW5       30.22F WCI  38
TYNDALL AFB    FAIR      41  38  88 NE3       30.23S
APALACHICOLA   FAIR      41  39  93 NE6       30.22S WCI  37

STATION/POSITION SKY/WX   TEMP    WIND        PRES    WAVE   SWELL
                          AIR SEA DIR/SP/G            HT/PER HT/PER
                          (F)     (DEG/KT/KT) (MB)    (FT/S) (FT/S)
29.2N   88.2W              64 62  120/ 10/ 12 1021.7F   4/ 6   3/ 6
28.8N   86.0W              65 69   90/  8/ 10 1022.4R   1/ 4   2/ 5
PANAMA CITY BEAC           48 54   60/  8/ 10 1023.6F
TOWER C                    58      70/ 11/ 12 1023.6R

$$
FLZ011-016>038-118-127-128-134-139-239-211100-
NORTH FLORIDA

CITY           SKY/WX    TMP DP  RH WIND       PRES   REMARKS
MARIANNA       FAIR      43  40  89 CALM      30.22F
TALLAHASSEE    FAIR      39  34  82 CALM      30.24R
PERRY          FAIR      41  36  81 CALM      30.24F
LIVE OAK       CLEAR     41  41 100 CALM      30.25S
CROSS CITY     FAIR      41  38  91 CALM      30.28F
LAKE CITY      FAIR      43  39  87 CALM      30.24S
GAINESVILLE    MOCLDY    46  41  82 CALM      30.26R
WILLISTON        N/A     48  46  93 CALM      30.23F
PALATKA        CLOUDY    48  37  66 CALM      30.24S
MAYPORT NAS    FAIR      48  44  86 CALM      30.24S
JACKSONVILLE   MOCLDY    47  43  86 CALM      30.23F
JAX NAS        MOCLDY    50  48  93 CALM      30.24F
JAX CECIL        N/A     46  45  93 MISG      30.23F
FERNANDINA BEA FAIR      48  41  76 CALM      30.23F
ST AUGUSTINE   MOCLDY    49  39  68 CALM      30.25S
PALM COAST     MOCLDY    52  40  63 NE3       30.23S

STATION/POSITION SKY/WX   TEMP    WIND        PRES    WAVE   SWELL
                          AIR SEA DIR/SP/G            HT/PER HT/PER
                          (F)     (DEG/KT/KT) (MB)    (FT/S) (FT/S)
SHELL POINT      NOT AVBL
KEATON BEACH               45      70/  3/  3 1023.4F
CEDAR KEY                  50      10/  7/  8 1023.3F
FERNANDINA                 49 49  350/  2/  2 1024.9F
30.7N   81.3W                 49                N/A     1/11
MAYPORT                    49 51   CALM  /  3 1024.0F
31.4N   80.9W              50 49  260/  4/  6 1024.5R   1/ 9   2/ 9
ST AUGUSTINE               52 51   70/  2/  2 1024.2R

$$
FLZ040-043>046-052-053-057-058-063-144-211100-
INTERIOR CENTRAL FLORIDA

CITY           SKY/WX    TMP DP  RH WIND       PRES   REMARKS
OCALA          CLOUDY    50  44  80 NE6       30.22S
LEESBURG       FAIR      54  47  77 N3        30.23R
SANFORD        FAIR      55  48  77 CALM      30.22R
ORLANDO EXEC   FAIR      58  50  75 NE5       30.20F
ORLANDO INTL   CLOUDY    56  51  84 N6        30.20F
KISSIMMEE      FAIR      58  52  80 N3        30.22F
WINTER HAVEN   FAIR      56  52  86 N5        30.22S
BARTOW         FAIR      55  52  88 N3        30.21R
SEBRING        FAIR      57  53  86 N5        30.19S
OKEECHOBEE     FAIR      57  55  94 N3        30.18S

$$
FLZ041-047-054-059-064-141-147-211100-
EAST CENTRAL FLORIDA

CITY           SKY/WX    TMP DP  RH WIND       PRES   REMARKS
DAYTONA BEACH  CLOUDY    55  46  71 N5        30.23S
DELAND         CLOUDY    54  46  76 CALM      30.23R
JFK SPACE CTR  FAIR      58  58 100 N7        30.20R
CAPE CANAVERAL FAIR      60  56  88 N5        30.19R
PATRICK AFB    FAIR      60  59  96 N9        30.19S
MELBOURNE      FAIR      61  57  87 CALM      30.19S
VERO BEACH     FAIR      60  59  96 CALM      30.19R
FT PIERCE      FAIR      59  59 100 CALM      30.18S
STUART         FAIR      59  59 100 CALM      30.18F

STATION/POSITION SKY/WX   TEMP    WIND        PRES    WAVE   SWELL
                          AIR SEA DIR/SP/G            HT/PER HT/PER
                          (F)     (DEG/KT/KT) (MB)    (FT/S) (FT/S)
28.5N   80.2W              71      90/  8/ 10 1022.5
TRIDENT PIER               59 60  350/  3/  4 1024.2R
28.4N   80.5W                 59                N/A     2/11
27.5N   80.2W                 63                N/A     3/10   2/11

$$
FLZ050-056-061-142-242-148-248-149-249-151-251-155-255-
160-260-211100-
WEST CENTRAL FLORIDA

CITY           SKY/WX    TMP DP  RH WIND       PRES   REMARKS
CRYSTAL RIVER  LGT RAIN  52  46  82 CALM      30.22S
INVERNESS      FAIR      50  46  87 CALM      30.23S
BROOKSVILLE    FAIR      54  46  74 N6        30.21F
CLEARWATER AIR FAIR      55  50  82 CALM      30.20S
ST PETE CLEARW FAIR      57  52  83 NE3       30.20S
TAMPA INTL     MOCLDY    60  51  72 NE3       30.21R
TAMPA EXEC     FAIR      55  50  82 CALM      30.21S
PLANT CITY     FAIR      57  52  82 NE5       30.22F
MACDILL AFB    CLOUDY    55  52  88 E5        30.20R
PETER O KNIGHT FAIR      57  52  82 NE6       30.21R
ST PETERSBURG  MOCLDY    58  53  84 NE3       30.19R
SARASOTA       FAIR      57  54  89 NE6       30.18R
VENICE           N/A     59  55  88 NE7       30.18S

STATION/POSITION SKY/WX   TEMP    WIND        PRES    WAVE   SWELL
                          AIR SEA DIR/SP/G            HT/PER HT/PER
                          (F)     (DEG/KT/KT) (MB)    (FT/S) (FT/S)
27.3N   84.2W                 70                N/A     3/ 4
CLEARWATER BEACH           58 54   70/  3/  5 1022.7R
MIDDLE TAMPA BAY           56      40/  6/  7 1022.8R
VENICE                     59 57   30/  7/  9 1021.9R

$$
FLZ066-069-070-075>078-162-262-165-265-211100-
SOUTHWEST FLORIDA AND KEYS

CITY           SKY/WX    TMP DP  RH WIND       PRES   REMARKS
PUNTA GORDA    FAIR      58  54  86 NE8       30.18F
FT MYERS       FAIR      60  57  89 NE8       30.15F
SOUTHWEST INTL FAIR      59  57  93 NE7       30.15F
NAPLES         FAIR      61  58  90 E8        30.12F
MARCO ISLAND   FAIR      62  58  86 E9        30.13F
IMMOKALEE      MOCLDY    59  57  94 NE3       30.16S
MARATHON       FAIR      72  62  71 E8        30.12F
KEY WEST NAS   FAIR      65  65 100 NE7       30.12F
KEY WEST INTL  FAIR      66  62  87 NE7       30.12F

STATION/POSITION SKY/WX   TEMP    WIND        PRES    WAVE   SWELL
                          AIR SEA DIR/SP/G            HT/PER HT/PER
                          (F)     (DEG/KT/KT) (MB)    (FT/S) (FT/S)
NAPLES                        61   70/  4/  5 1020.3F
DRY TORTUGAS               69      90/ 16/ 18 1018.9F
SAND KEY                   67                 1020.2F
MOLASSES REEF              73 73   90/ 14/ 16 1020.7R

$$
FLZ067-068-071>074-168-172>174-211100-
SOUTHEAST FLORIDA

CITY           SKY/WX    TMP DP  RH WIND       PRES   REMARKS
W PALM BEACH   MOCLDY    69  62  78 E9        30.17R
FT LAUDER-EXEC MOCLDY    70  65  84 E13       30.14F
FT LAUDERDALE  MOCLDY    71  66  84 E16       30.14F
POMPANO BEACH  FAIR      72  66  81 SE17      30.14F
PEMBROKE PINES MOCLDY    72  63  73 E9        30.16F
OPA LOCKA      FAIR      70  64  81 E13       30.14F
MIAMI          CLOUDY    71  64  78 E14       30.14F
WEST KENDALL   FAIR      68  63  84 E10       30.14F
HOMESTEAD      FAIR      69  69 100 NE8       30.14R

STATION/POSITION SKY/WX   TEMP    WIND        PRES    WAVE   SWELL
                          AIR SEA DIR/SP/G            HT/PER HT/PER
                          (F)     (DEG/KT/KT) (MB)    (FT/S) (FT/S)
PORT EVERGLADES            72     100/  6/ 11 1020.8
VIRGINIA KEY               71 69   70/  9/ 14 1021.0R
LAKE WORTH                 71 71  120/ 11/ 14 1022.7R
FOWEY ROCKS                72 73   80/ 17/ 17 1021.7R
SETTLEMENT POINT           67      70/  8/  9 1022.0R

$$





USA.gov is the U.S. government's official web portal to all federal, state and local government web resources and services.